COSMOS 1275 DEB, 17627

Orbit data source: Space-Track

COSMOS 1275 DEB, 17627 is space debris in LEO originally from a launch on Thu, 04 Jun 1981 UTC launched from the Plesetsk Missile And Space Complex (PKMTR). Debris objects in space refer to the collection of defunct objects orbiting the Earth. Examples of debris include non-operational satellites, rocket bodies, and fragments generated from explosions, collisions, or faulty payload assembly.

Loading next visibility...
Identifier
17627, 1981-053KW
Orbit
LEO
Country
Flag of CISCIS
Related business
Manufacturer
Unknown
Mission
Spacecraft
Bus & Motor
Unknown
Mass
Unknown
Launch date (UTC)
1981-06-04 (45 years ago)
Launch vehicle
Unknown
Launch site
Plesetsk Missile And Space Complex (PKMTR)
Object type
Payload
Rocket body
Debris
Shape & HBR
Unknown shape, 0.1 m
Radar Cross Section
Small (<0.1 m²)

Expand to show TLE details & history
Last TLE update: 22 hours ago

TLE from 22 hours ago
0 COSMOS 1275 DEB
1 17627U 81053KW  26145.04328487  .00001024  00000-0  66882-3 0  9994
2 17627  82.9248  13.2163 0047474 132.9817 227.5349 14.00809158 82380
Epoch: 2026-05-25T01:02Z
TLE epoch observation values (Epoch: 2026-05-25T01:02:19.812Z)
Latitude
-0.00003°
Longitude
114.997°
Altitude
917.322 km
Speed
7.381 km/s
True Right ascension
00h 52m 51s
True Declination
0° 00' 00"
Sunlit
Object was in daylight at epoch
Visualization orbit readout
Latitude
Unknown
Longitude
Unknown
Altitude
Unknown
Speed
Unknown
Apparent Right ascension
Unknown
Apparent Declination
Unknown
Sunlit
N/A
Visualization observer readout
Local Sidereal Time
08:14:19
Azimuth
Unknown
Elevation
Unknown
Doppler factor
Unknown
Orbital elements
Apogee altitude
922.604 km
Perigee altitude
853.612 km
Semi-major axis
7,266.245 km
Eccentricity
0.00475
Inclination
82.9248°
RAAN
13.2163°
Arg. of periapsis
132.9817°
True anomaly
227.13519°
Mean anomaly
227.5349°
Eccentric anomaly
227.33489°
Mean motion
3.50411 °/min
Orbital period
102.74 mins
BSTAR
0.00066882
Loading maneuver chart data...
Computing Atmospheric mass density...
Loading historical data...
Loading historical data...
Loading historical data...
Loading historical data...
Loading historical data...
Loading historical data...
Loading historical data...

Documentation

Showing up to 5 results
|